319P/Catalina-McNaught (2008)

Japanese version
Home page
Updated on April 12, 2015

---------------------------------------------------------------------

* Profile

Designation 319P/2008 S1
Discovery Date May 2 and September 17, 2008
Magnitude 19.8 mag, 16.6 mag
Discoverer A. Boattini (Catalina Sky Survey), R. H. McNaught (Siding Spring Survey)

* Orbital Elements

Epoch 2008 Oct. 21.0 TT = JDT 2454760.5
T 2008 Oct. 1.82968 TT                                  MPCW
q   1.1902378            (2000.0)            P               Q
n   0.14624994     Peri.  203.63122     +0.69448150     +0.67738293
a   3.5678418      Node   111.39020     -0.61160608     +0.73335656
e   0.6663984      Incl.   15.10161     -0.37899004     +0.05779726
P   6.74
From 76 observations 2008 May 2-2015 Apr. 8, mean residual 0".5.

* Finding Charts

* Magnitudes Graph

        m1 = 16.3 + 5 log d + 10.0 log r

---------------------------------------------------------------------

The orbital elements are published on M.P.E.C. 2015-G17.
The charts are made with StellaNavigator Ver.8 (AstroArts).
The magnitudes graphs are made with Comet for Windows.

---------------------------------------------------------------------

Copyright(C) Seiichi Yoshida (comet@aerith.net). All rights reserved.